Вернуться в каталог

ONEWEB-0576

АктивенСвязьPO
NORAD 56065·PAYLOAD·🇬🇧 United Kingdom

Запущен Mar 26, 2023 с Satish Dhawan Space Centre

Loading…

Ближайшие Пролёты (ближайшие 24 часа)

TLE

СвежийSource: CelesTrak SupGP

Эпоха: Sep 14, 2026, 21:32 UTC

1 56065C 23043V   26257.89737685 -.00001610  00000+0 -42171-2 0  2572
2 56065  87.9146 210.9640 0002175  85.7636 309.2843 13.16595382    14

Отслеживайте ONEWEB-0576 в реальном времени с AllMySat

Download on the App Store